Reno, NV

6:39 PM PDT on October 21, 2019 (GMT -0700)
Reno-Tahoe International

Weather History for KRNO - August, 2019

Change the Weather History Date:

Tuesday, August 27, 2019

  Actual Average Record
Temperature  
Mean Temperature 80 °F 71 °F  
Max Temperature 98 °F 88 °F 100 °F (1924)
Min Temperature 61 °F 54 °F 34 °F (1960)
Degree Days  
Heating Degree Days 0 0  
Month to date heating degree days 0 0  
Since 1 June heating degree days 15 61  
Since 1 July heating degree days 0 5  
Cooling Degree Days 14 6  
Month to date cooling degree days 346 235  
Year to date cooling degree days 937 722  
Since 1 June cooling degree days 923 685  
Growing Degree Days 30 (Base 50)    
Moisture  
Dew Point 36 °F    
Average Humidity 23    
Maximum Humidity 49    
Minimum Humidity 9    
Precipitation  
Precipitation 0.00 in 0.01 in 0.58 in (1913)
Month to date precipitation T 0.21  
Year to date precipitation 8.76 4.67  
Snow  
Snow 0.00 in 0.00 in 0.00 in ()
Month to date snowfall 0.0 0.0  
Since 1 June snowfall 0.0 T  
Since 1 July snowfall 0.0 0.0  
Snow Depth 0.00 in    
Sea Level Pressure  
Sea Level Pressure 29.88 in    
Wind  
Wind Speed 3 mph ()    
Max Wind Speed 14 mph    
Max Gust Speed 18 mph    
Visibility 10.0 miles    
Events      
T = Trace of Precipitation, MM = Missing Value Source: Averaged Metar Reports

Daily Weather History Graph

Daily Weather History Graph

Search for Another Location

Airport or City:

Astronomy

Aug. 27, 2019 Rise Set
Actual Time 6:22 AM PDT 7:37 PM PDT
Civil Twilight 5:54 AM PDT 8:05 PM PDT
Nautical Twilight 5:21 AM PDT 8:38 PM PDT
Astronomical Twilight 4:46 AM PDT 9:13 PM PDT
Moon 2:53 AM PDT (8/27) 6:02 PM PDT (8/27)
Length of Visible Light 14h 10m
Length of Day
13h 15m
Waning Crescent, 10% of the Moon is Illuminated
Aug 27
Waning Crescent
Aug 30
New
Sep 5
First Quarter
Sep 13
Full
Sep 21
Last Quarter

Hourly Weather History & Observations

Time (PDT) Temp. Dew Point Humidity Pressure Visibility Wind Dir Wind Speed Gust Speed Precip Events Conditions
12:55 AM 72.0 °F 37.0 °F 28% 29.91 in 10.0 mi West 3.5 mph - N/A   Clear
1:55 AM 70.0 °F 36.0 °F 29% 29.91 in 10.0 mi NNW 3.5 mph - N/A   Clear
2:55 AM 68.0 °F 37.0 °F 32% 29.91 in 10.0 mi WNW 3.5 mph - N/A   Clear
3:55 AM 66.0 °F 37.9 °F 36% 29.91 in 10.0 mi West 4.6 mph - N/A   Clear
4:55 AM 64.9 °F 39.0 °F 39% 29.92 in 10.0 mi West 4.6 mph - N/A   Clear
5:55 AM 61.0 °F 41.0 °F 48% 29.94 in 10.0 mi Calm Calm - N/A   Clear
6:55 AM 64.0 °F 39.9 °F 41% 29.95 in 10.0 mi WNW 3.5 mph - N/A   Partly Cloudy
7:55 AM 66.0 °F 41.0 °F 40% 29.97 in 10.0 mi Calm Calm - N/A   Partly Cloudy
8:55 AM 73.0 °F 39.9 °F 30% 29.96 in 10.0 mi Calm Calm - N/A   Partly Cloudy
9:55 AM 75.9 °F 39.9 °F 27% 29.95 in 10.0 mi Calm Calm - N/A   Partly Cloudy
10:55 AM 82.9 °F 33.1 °F 17% 29.93 in 10.0 mi Calm Calm - N/A   Partly Cloudy
11:55 AM 88.0 °F 30.0 °F 12% 29.91 in 10.0 mi Calm Calm - N/A   Partly Cloudy
12:55 PM 91.9 °F 28.9 °F 11% 29.88 in 10.0 mi East 6.9 mph - N/A   Clear
1:55 PM 93.9 °F 28.9 °F 10% 29.86 in 10.0 mi Variable 5.8 mph - N/A   Partly Cloudy
2:55 PM 95.0 °F 28.9 °F 10% 29.84 in 10.0 mi NE 12.7 mph - N/A   Partly Cloudy
3:55 PM 96.1 °F 30.0 °F 10% 29.82 in 10.0 mi SW 9.2 mph - N/A   Partly Cloudy
4:55 PM 97.0 °F 30.9 °F 10% 29.80 in 10.0 mi ENE 6.9 mph - N/A   Scattered Clouds
5:55 PM 93.9 °F 30.9 °F 11% 29.81 in 10.0 mi NE 5.8 mph - N/A   Mostly Cloudy
6:55 PM 93.0 °F 30.9 °F 11% 29.81 in 10.0 mi Calm Calm - N/A   Mostly Cloudy
7:55 PM 91.0 °F 39.0 °F 16% 29.83 in 10.0 mi NW 3.5 mph - N/A   Mostly Cloudy
8:55 PM 87.1 °F 41.0 °F 20% 29.83 in 10.0 mi WSW 5.8 mph - N/A   Mostly Cloudy
9:55 PM 84.0 °F 41.0 °F 22% 29.84 in 10.0 mi WSW 4.6 mph - N/A   Scattered Clouds
10:55 PM 81.0 °F 42.1 °F 25% 29.84 in 10.0 mi West 4.6 mph - N/A   Partly Cloudy
11:55 PM 77.0 °F 39.9 °F 26% 29.84 in 10.0 mi Calm Calm - N/A   Partly Cloudy